Regional Weather Roundup
Issued by NWS State College, PA

Home | Current Version | Previous Version | Text Only | Print | Product List | Glossary Off
Versions: 1 2 3 4 5 6 7 8 9 10 11 12 13 14 15 16 17 18 19 20 21 22 23 24 25 26 27 28 29 30 31 32 33 34 35 36 37 38 39 40 41 42 43 44 45 46 47 48 49 50

000
ASUS41 KCTP 271903
RWRCTP

REGIONAL WEATHER ROUNDUP
NATIONAL WEATHER SERVICE STATE COLLEGE PA
300 PM EDT FRI MAR 27 2015

Note: "fair" indicates few or no clouds below 12,000 feet with no
significant weather and/or obstructions to visibility.

* = STATION THAT DOES NOT REPORT PRECIPITATION /E.G. RAIN...SNOW...ETC/
    THUNDER OR FOG.

PAZ002>004-007>009-013>016-020>023-029>032-272000-
WESTERN PENNSYLVANIA

CITY           SKY/WX    TMP DP  RH WIND       PRES   REMARKS
ERIE           LGT SNOW  28  22  78 W10       29.92F
MEADVILLE      CLOUDY    26  16  65 W13       29.88S WCI  15
FRANKLIN*      PTSUNNY   27  19  74 NW10G16   29.87S
NEW CASTLE     FLURRIES  30  22  72 NW13      29.91S
BEAVER COUNTY  LGT SNOW  30  23  74 NW9       29.88S
BUTLER*        PTSUNNY   34  23  64 N12       29.87S
PITTSBURGH INT FLURRIES  33  24  69 N10       29.86F
PITTSBURGH     CLOUDY    34  21  59 NW13G20   29.84S
INDIANA*       CLOUDY    36  27  69 N9        29.84F
LATROBE        CLOUDY    37  27  65 NW10      29.84F
WASHINGTON CO* CLOUDY    34  25  69 NW7       29.87F
$$

PAZ004>006-010>012-017>019-024>028-033>037-041-042-045-046-049>053-272000-
CENTRAL PENNSYLVANIA

CITY           SKY/WX    TMP DP  RH WIND       PRES   REMARKS
BRADFORD       LGT SNOW  29  22  75 W12       29.76F
DUBOIS         CLOUDY    34  22  61 NW13      29.78F
CLEARFIELD     CLOUDY    35  23  61 NW12      29.78F
JOHNSTOWN      CLOUDY    32  23  69 W12       29.75S
ALTOONA        CLOUDY    40  23  50 NW13      29.77F
STATE COLLEGE  CLOUDY    39  23  52 SW6       29.77F
WILLIAMSPORT   CLOUDY    43  22  43 N9        29.77F
SELINSGROVE    CLOUDY    43  24  47 W8        29.79R
FT INDIANTOWN  PTSUNNY   44  23  43 N10       29.75F
CAPITAL CITY   PTSUNNY   47  23  38 N10       29.76F
HARRISBURG     PTSUNNY   47  25  42 NW16      29.75F
YORK           FAIR      47  27  45 NW12      29.76F
$$

PAZ038>040-043-044-047-048-054-055-060>062-067>071-272000-
EASTERN PENNSYLVANIA

CITY           SKY/WX    TMP DP  RH WIND       PRES   REMARKS
SCRANTON       CLOUDY    41  25  53 N9        29.75F
MOUNT POCONO   PTSUNNY   35  23  61 N12G20    29.70F
ALLENTOWN      CLOUDY    44  28  53 N12       29.77S
QUAKERTOWN*    FAIR      43  27  52 N8        29.76R
READING        CLOUDY    44  25  47 N10       29.75F
LANCASTER      FAIR      45  25  45 NW14G21   29.75F
COATESVILLE    FAIR      43  28  56 N13       29.74F
POTTSTOWN      PTSUNNY   44  28  53 NW12      29.76F
BLUE BELL      PTSUNNY   45  32  61 N7        29.74F
DOYLESTOWN     FAIR      41  28  60 NW10G20   29.75R
WILLOW GROVE   NOT AVBL
NORTH PHILA    CLOUDY    46  29  51 NW13      29.77R
PHILADELPHIA   CLOUDY    46  30  53 N12G20    29.75F
$$


USA.gov is the U.S. government's official web portal to all federal, state and local government web resources and services.